Regional Weather Roundup
Issued by NWS

Home | Current Version | Previous Version | Text Only | Print | Product List | Glossary On
Versions: 1 2 3 4 5 6 7 8 9 10 11 12 13 14 15 16 17 18 19 20 21 22 23 24 25 26 27 28 29 30 31 32 33 34 35 36 37 38 39 40 41 42 43 44 45 46 47 48 49 50
000
ASUS43 KDTX 040301
RWRMI
MICHIGAN HOURLY REGIONAL WEATHER ROUNDUP
NATIONAL WEATHER SERVICE DETROIT/PONTIAC MI
1100 PM EDT TUE MAY 03 2016

NOTE: "FAIR" INDICATES FEW OR NO CLOUDS BELOW 12,000 FEET WITH NO
SIGNIFICANT WEATHER AND/OR OBSTRUCTION TO VISIBILITY.

MIZ047>049-052>055-059>063-066>070-074>076-081>083-040400-
SOUTHEAST LOWER MICHIGAN

CITY           SKY/WX    TMP DP  RH WIND       PRES   REMARKS
ADRIAN         CLEAR     52  43  71 SW8       29.79F
ALMA           MOCLDY    53  37  53 S13       29.71F
ANN ARBOR      CLEAR     51  40  65 SW6       29.77F
BAD AXE        CLOUDY    55  44  66 S10       29.72S
CARO           PTCLDY    55  37  50 SW5       29.71F
DETROIT CITY   CLEAR     52  43  71 S9        29.78F
DETROIT        PTCLDY    52  45  77 SE7       29.78F
FLINT          PTCLDY    58  37  45 S7        29.74F
GROSSE ILE     PTCLDY    52  48  87 S8        29.77F
HILLSDALE      CLOUDY    54  35  48 S6        29.78S
HOWELL         MOCLDY    54  37  51 SW3       29.74F

CITY           SKY/WX    TMP DP  RH WIND       PRES   REMARKS
JACKSON        CLOUDY    54  36  50 SW5       29.76F
LAMBERTVILLE   CLEAR     54  41  62 S5        29.79F
LANSING        CLOUDY    55  35  47 SW7       29.74F
LAPEER         FAIR      54  42  63 S8        29.74F
MASON          CLOUDY    51  43  74 S8        29.75F
MONROE         PTCLDY    50  45  81 S13       29.78F
MT. CLEMENS    CLEAR     48  45  90 S10       29.76F
PONTIAC        MOCLDY    54  44  69 S6        29.75F
PORT HOPE        N/A     57  42  57 S8        29.68F
PORT HURON     CLEAR     50  41  71 S6        29.77F
TRI CITIES     CLOUDY    58  37  45 SW8       29.72F
MIDLAND        FAIR      55  36  48 S5        29.70F
TROY           CLEAR     54  43  67 S6        29.78F
SAGINAW HB     CLOUDY    54  37  54 SW7       29.71F
$$
MIZ043>046-050>051-056>058-064>065-071>073-077>080-040400-
SOUTHWEST LOWER MICHIGAN

CITY           SKY/WX    TMP DP  RH WIND       PRES   REMARKS
BATTLE CREEK   CLOUDY    56  37  49 S8        29.75F
BENTON HARBOR  CLOUDY    59  40  49 S8        29.73F
BIG RAPIDS     CLOUDY    55  34  45 NW3       29.69F
COLDWATER      CLOUDY    54  38  55 CALM      29.77F
FREMONT        CLOUDY    55  34  45 NW16G22   29.71R
HOLLAND        CLOUDY    59  38  45 SW12      29.71F
GRAND RAPIDS   CLOUDY    58  38  47 S9        29.71F
IONIA          CLOUDY    56  36  47 S8        29.71F
KALAMAZOO      CLOUDY    57  38  48 S8        29.75F
LUDINGTON      CLOUDY    47  43  87 S3        29.68F
MARSHALL       CLOUDY    55  37  49 S3        29.75F
MOUNT PLEASANT CLOUDY    56  37  48 S5        29.69F
MUSKEGON       CLOUDY    54  37  52 SW14      29.68F
$$
MIZ016>042-040400-
NORTHERN LOWER MICHIGAN

CITY           SKY/WX    TMP DP  RH WIND       PRES   REMARKS
ALPENA         CLOUDY    51  39  63 N6        29.68F
BEAVER ISLAND  RAIN      47  46  93 S7        29.66F
BELLAIRE       LGT RAIN  49  46  87 NE3       29.69F
CADILLAC       DRIZZLE   51  43  75 SW3       29.68F
CHARLEVOIX     RAIN      47  47  97 SE5       29.71F
FRANKFORT      LGT RAIN  46  44  93 CALM      29.68F
GAYLORD        CLOUDY    48  43  82 VRB3      29.68F
HARBOR SPRINGS RAIN      45  44  95 CALM      29.69S
HOUGHTON LAKE  CLOUDY    56  38  50 SW8       29.68F
MANISTEE       MOCLDY    48  41  76 NW7       29.69S
OSCODA         CLOUDY    56  37  49 CALM      29.67S
PELLSTON       LGT RAIN  47  45  93 S3        29.68F
ROGERS CITY    CLOUDY    50  42  74 W6        29.69S
TRAVERSE CITY  CLOUDY    50  43  77 CALM      29.67F
$$
MIZ007>008-015-040400-
EASTERN UPPER MICHIGAN

CITY           SKY/WX    TMP DP  RH WIND       PRES   REMARKS
KINROSS          N/A     46  46 100 SW3       29.66F
MACKINAC ISLAN LGT RAIN  45  45 100 SW6       29.66F
NEWBERRY       CLOUDY    45  44  97 SW6       29.65F
S. S. MARIE    CLOUDY    48  45  89 S3        29.65F
MUNISING         N/A     43  38  82 NW8       29.70S
$$
MIZ004>006-011>014-085-040400-
CENTRAL UPPER MICHIGAN

CITY           SKY/WX    TMP DP  RH WIND       PRES   REMARKS
MANISTIQUE     CLOUDY    47  46  97 NW7       29.66F
ESCANABA       MOCLDY    46  43  87 N6        29.69R
MENOMINEE      CLOUDY    49  45  86 CALM      29.70S
SAWYER-GWINN   MOCLDY    40  35  81 N17G25    29.70R WCI  32
$$
MIZ001>003-009>011-084-040400-
WESTERN UPPER MICHIGAN

CITY           SKY/WX    TMP DP  RH WIND       PRES   REMARKS
IRON MOUNTAIN  MOCLDY    45  42  89 NW6       29.70R
HOUGHTON       MOCLDY    42  34  73 N20G35    29.76R
COPPER HARBOR    N/A     41  37  86 NE21G28   29.75R
IRONWOOD         N/A     46  36  66 NW7       29.75R
$$

ABBREVIATIONS USED IN REMARKS
   TC - TEMPERATURE IN CELSIUS
  WCI - WIND CHILL INDEX
   HX - HEAT INDEX
  VSB - VISIBILITY





USA.gov is the U.S. government's official web portal to all federal, state and local government web resources and services.